COSMOS 2251 DEB

Satellite information

Favourite Embed

Satellite Type and Status

DEBRISIN ORBIT

Key statistics

Satellite COSMOS 2251 DEB at a glance.

Uptime

11869

Days in orbit

Revolutions

≈ 14.7

Per day

Orbit

LEO

Low Earth Orbit

Inclination

73.9

Latest

Satellite identification and parameters

Extended collection of information and parameters for COSMOS 2251 DEB.

Object identification

Identified? True

Debris? True

Object name: COSMOS 2251 DEB

International designator: 1993-036ALA

Object number (NORAD): 35456

Object ID (CCSDS): 35456

Country: COMMONWEALTH OF INDEPENDENT STATES (CIS)

Current information (Y/N): Y

RCS size: SMALL

Orbital parameters

Period: 97.997 minutes

Inclination: 73.9495 deg

SMA: 7040.996 km

Apoapsis: 709.36 km

Periapsis: 616.361 km

RAAN: 116.8436 deg

Eccentricy: 0.00660413

Argument of periapsis: 326.4875 deg

Mean anomaly: 33.2124 deg

Mean motion: 14.69439296 rev/day

Mean motion (dot): 0.000156 rev/day2

B* drag term: 0.0025474833 1/REarth

Two-line elements (TLE)

Creation date: Dec. 13, 2025, 5:47 p.m.

Reference frame: TEME

Reference center: EARTH

Epoch: Dec. 13, 2025, 1:31 a.m. UTC

TLE line 0: 0 COSMOS 2251 DEB

TLE line 1: 1 35456U 93036ALA 25347.06384742 .00015600 00000-0 25475-2 0 9996

TLE line 2: 2 35456 73.9495 116.8436 0066041 326.4875 33.2124 14.69439296658808

Live tracking on map

Real-time ground track for satellite COSMOS 2251 DEB.

In-orbit conjunctions

A list of the most updated potential collisions computed for object COSMOS 2251 DEB.

Target Orbit TCA Probability of collision Miss distance Type
CZ-2C R/B SSO 2025-09-04 21:31:55 0.0004259028 207.0 (m) ROCKET BODY
CHUANG XIN 1 (CZ-1) SSO 2025-05-10 18:28:10 0.0001236769 588.0 (m) PAYLOAD
CZ-6A DEB LEO 2024-11-11 03:14:40 0.0002342618 346.0 (m) DEBRIS

Associated space launch

Military communications satellite. Destroyed in a collision with Iridium 33.

COSMOS 2251 DEB was lifted into orbit during the mission ‘Kosmos-3M | Strela-2M 51’, on board a Kosmos-3M space rocket.

The launch took place on June 16, 1993, 4:17 a.m. from 132/1 (132L).

For more information about the launch, click the button.

Launch to space Kosmos-3M | Strela-2M 51
Kosmos-3M | Strela-2M 51

Agency: N/A

Status: Launch Successful

Launch date: June 16, 1993, 4:17 a.m. UTC

Rocket: Kosmos-3M

Launch pad: 132/1 (132L)

Location: Plesetsk Cosmodrome, Russian Federation

...

Latest news about this satellite

There are no fresh news available about this satellite. Check back as we update our databases every day.


Newsletter sign-up

Weekly statistics, charts and insights to help you stay on top of the space industry.